Погода в Валкеакоски

Финляндия     61°15′56″N   24°01′49″E
темп.,
°C
ветер,
м/с
пор.,
м/с
влажн.,
%
обл.,
%
осадки,
мм/ч
давл.,
гПа
погр.,
м
13 апреля, вт
вт1300:00+6ююз3993100 0.8 1015456
03:00+4зюз3794100 0.9 1015509
06:00+3юз259376 0.0 1016192
09:00+4юз377568 0.0 1017550
12:00+6юз4761100 0.0 10181060
15:00+7юз5749100 0.0 10181279
18:00+6юз474892 0.0 10181164
21:00+2ююз3871100 0.0 1019354
14 апреля, ср
ср1400:00+1юз398549 0.0 1018363
03:000ююз389612 0.0 1018233
06:00−1зюз279737 0.0 1018200
09:00+2зсз36756 0.0 1020560
12:00+4зсз3557100 0.0 10211024
15:00+5сз445882 0.0 10221112
18:00+5с345486 0.0 10231184
21:00+1в227879 0.0 102520
15 апреля, чт
чт1500:000ссз227985 0.0 102713
03:00−1с228033 0.0 102936
06:00−1с22791 0.0 102923
09:00+2с12590 0.0 1031250
12:00+6ссв12460 0.0 1031630
15:00+8с23400 0.0 1030989
18:00+8ссв23461 0.0 10301005
21:00+4ссв22685 0.0 103111
16 апреля, пт
пт1600:00+2ссв22805 0.0 103226
03:00+1ссв22875 0.0 103242
06:000ссв23905 0.0 103348
09:00+3св24748 0.0 1034207
12:00+7св35649 0.0 1034709
15:00+9св46555 0.0 10341075
18:00+9всв46565 0.0 1034861
21:00+5всв387340 0.0 1036147
17 апреля, сб
сб1700:00+3всв310735 0.0 1038235
03:00+1св278216 0.0 1038144
06:000всв24850 0.0 103962
09:00+3в35691 0.0 1040247
12:00+7в35471 0.0 1039741
15:00+9всв24400 0.0 1039993
18:00+9всв34395 0.0 1038634
21:00+4всв25595 0.0 103866